Regional Weather Roundup
Issued by NWS

Home | Current Version | Previous Version | Graphics & Text | Print | Product List | Glossary On
Versions: 1 2 3 4 5 6 7 8 9 10 11 12 13 14 15 16 17 18 19 20 21 22 23 24 25 26 27 28 29 30 31 32 33 34 35 36 37 38 39 40 41 42 43 44 45 46 47 48 49 50
000
ASUS44 KMEG 301700
RWRTN
TENNESSEE HOURLY STATE WEATHER ROUNDUP
NATIONAL WEATHER SERVICE MEMPHIS TN
1200 PM CDT FRI SEP 30 2016

TNZ002-004-019-021-049-052-054-088>092-301800-
WEST TENNESSEE

CITY           SKY/WX    TMP DP  RH WIND       PRES   REMARKS
MEMPHIS INTL   PTSUNNY   73  55  53 VRB7      30.12F
NWS MEMPHIS      N/A     68 N/A N/A MISG        N/A
JACKSON        CLOUDY   N/A N/A N/A NW3       30.11F
DYERSBURG      CLOUDY   N/A N/A N/A MISG        N/A
PARIS          MOSUNNY   66  54  63 W8        30.08F
$$

TNZ008-025-027-028-033-062-065-066-301800-
NORTH MIDDLE TENNESSEE

CITY           SKY/WX    TMP DP  RH WIND       PRES   REMARKS
NASHVILLE      CLOUDY    63  53  70 W8        30.08S
CLARKSVILLE    LGT RAIN  64  56  75 W9        30.05F
SMYRNA         CLOUDY    62  55  77 W8        30.09S
COOKEVILLE     PTSUNNY   64  54  68 VRB7      30.07R
CROSSVILLE     PTSUNNY   61  47  59 W10       30.08S
$$

TNZ061-075-076-078-094-096-097-301800-
SOUTH MIDDLE TENNESSEE

CITY           SKY/WX    TMP DP  RH WIND       PRES   REMARKS
SHELBYVILLE    CLOUDY    61  57  88 SW8       30.11S
$$

TNZ017-018-042-046-047-301800-
NORTHEAST TENNESSEE

CITY           SKY/WX    TMP DP  RH WIND       PRES   REMARKS
TRI CITIES     CLOUDY    63  53  70 N5        30.05S
$$

TNZ012-013-036-069-073-074-301800-
CENTRAL EAST TENNESSEE

CITY           SKY/WX    TMP DP  RH WIND       PRES   REMARKS
KNOXVILLE      MOSUNNY   66  47  50 SW8       30.04F
OAK RIDGE      SUNNY     68  46  45 VRB5      30.06F
GATLINBURG     MOSUNNY   66  46  48 VRB5      30.04S
$$

TNZ083-085-099-301800-
SOUTHEAST TENNESSEE

CITY           SKY/WX    TMP DP  RH WIND       PRES   REMARKS
CHATTANOOGA    PTSUNNY   68  48  48 CALM      30.07F
$$

SKY/WX REPORTED AS FAIR MEANS FEW OR NO CLOUDS BELOW
12 THOUSAND FEET.




USA.gov is the U.S. government's official web portal to all federal, state and local government web resources and services.